If you wish to contribute or participate in the discussions about articles you are invited to join SKYbrary as a registered user

 Actions

Ivano-Frankivsk International Airport

From SKYbrary Wiki

UKLI
Airport
ICAO: UKLI
Summary
Name Ivano-Frankivsk International Airport
Region Europe
Territory Ukraine UA.gif
Location Ivano-Frankivsk
Serving
Coordinates 48° 53' 13.98" N, 24° 41' 27.42" E
Runways
Designator Length Width Surface ROPS
10/28 2507 m8,225.066 ft
44 m144.357 ft
CON /


METAR
Observation UKLI 150441Z 29001MPS 8000 1600N BR NSC 03/03 Q1019 R10/090070 NOSIG
Station Ivano-Frankivsk
Date/Time 15 October 2019 04:41:00
Wind direction 290°
Wind speed kts
Lowest cloud amount nil significant cloud
Temperature 3°C
Dew point 3°C
Humidity 100%
QNH 1019 hPa
Weather condition n/a

Ivano-Frankivsk International Airport (IATA: IFO) is an airport in Ivano-Frankivsk, Ukraine, some 4.4 km from the town center.